Time,TemperatureF,DewpointF,PressureIn,WindDirection,WindDirectionDegrees,WindSpeedMPH,WindSpeedGustMPH,Humidity,HourlyPrecipIn,Conditions,Clouds,dailyrainin,SoftwareType,DateUTC
2013-01-30 00:03:00,30.2,28.9,29.63,NW,322,8.0,25.0,95,0.00,,,0.00,WUHU216DAVISVP2,2013-01-30 06:03:00,
2013-01-30 00:08:00,30.0,28.7,29.63,North,11,10.0,25.0,95,0.00,,,0.00,WUHU216DAVISVP2,2013-01-30 06:08:00,
2013-01-30 00:13:00,29.8,28.5,29.63,North,359,13.0,23.0,95,0.00,,,0.00,WUHU216DAVISVP2,2013-01-30 06:13:00,
2013-01-30 00:18:00,29.6,28.3,29.64,NE,56,10.0,20.0,95,0.00,,,0.00,WUHU216DAVISVP2,2013-01-30 06:18:00,
2013-01-30 00:23:00,29.5,28.2,29.65,NNE,24,8.0,20.0,95,0.00,,,0.00,WUHU216DAVISVP2,2013-01-30 06:23:00,
2013-01-30 00:28:00,29.3,28.0,29.64,North,9,16.0,21.0,95,0.00,,,0.00,WUHU216DAVISVP2,2013-01-30 06:28:00,
2013-01-30 00:33:00,29.2,27.9,29.65,NE,56,11.0,21.0,95,0.00,,,0.00,WUHU216DAVISVP2,2013-01-30 06:33:00,
2013-01-30 00:38:00,29.1,27.8,29.65,North,352,8.0,20.0,95,0.00,,,0.00,WUHU216DAVISVP2,2013-01-30 06:38:00,
2013-01-30 00:43:00,29.0,27.7,29.65,NNW,339,5.0,20.0,95,0.00,,,0.00,WUHU216DAVISVP2,2013-01-30 06:43:00,
2013-01-30 00:48:00,29.0,27.7,29.65,NNW,334,7.0,19.0,95,0.00,,,0.00,WUHU216DAVISVP2,2013-01-30 06:48:00,
2013-01-30 00:53:00,28.9,27.6,29.65,NNW,338,8.0,19.0,95,0.00,,,0.00,WUHU216DAVISVP2,2013-01-30 06:53:00,
2013-01-30 00:58:00,28.7,27.4,29.64,NNW,333,11.0,19.0,95,0.00,,,0.00,WUHU216DAVISVP2,2013-01-30 06:58:00,
2013-01-30 01:03:00,28.5,27.2,29.63,NNW,338,14.0,23.0,95,0.00,,,0.00,WUHU216DAVISVP2,2013-01-30 07:03:00,
2013-01-30 01:08:00,28.1,26.8,29.63,North,1,12.0,27.0,95,0.00,,,0.00,WUHU216DAVISVP2,2013-01-30 07:08:00,
2013-01-30 01:13:00,27.9,26.6,29.63,North,354,13.0,27.0,95,0.00,,,0.00,WUHU216DAVISVP2,2013-01-30 07:13:00,
2013-01-30 01:18:00,27.7,26.4,29.63,NNE,13,10.0,26.0,95,0.00,,,0.00,WUHU216DAVISVP2,2013-01-30 07:18:00,
2013-01-30 01:23:00,27.6,26.3,29.63,NNE,33,13.0,26.0,95,0.00,,,0.00,WUHU216DAVISVP2,2013-01-30 07:23:00,
2013-01-30 01:28:00,27.6,26.3,29.63,North,359,9.0,22.0,95,0.00,,,0.00,WUHU216DAVISVP2,2013-01-30 07:28:00,
2013-01-30 01:33:00,27.4,26.1,29.63,NNE,13,17.0,29.0,95,0.00,,,0.00,WUHU216DAVISVP2,2013-01-30 07:33:00,
2013-01-30 01:38:00,27.2,25.9,29.64,North,4,15.0,29.0,95,0.00,,,0.00,WUHU216DAVISVP2,2013-01-30 07:38:00,
2013-01-30 01:43:00,27.1,25.8,29.64,North,360,12.0,29.0,95,0.00,,,0.00,WUHU216DAVISVP2,2013-01-30 07:43:00,
2013-01-30 01:48:00,27.1,25.8,29.65,NNE,25,14.0,29.0,95,0.00,,,0.00,WUHU216DAVISVP2,2013-01-30 07:48:00,
2013-01-30 01:53:00,27.1,25.8,29.65,North,3,12.0,26.0,95,0.00,,,0.00,WUHU216DAVISVP2,2013-01-30 07:53:00,
2013-01-30 01:58:00,27.1,25.8,29.65,NNE,22,14.0,21.0,95,0.00,,,0.00,WUHU216DAVISVP2,2013-01-30 07:58:00,
2013-01-30 02:03:00,26.8,25.5,29.65,North,354,19.0,26.0,95,0.00,,,0.00,WUHU216DAVISVP2,2013-01-30 08:03:00,
2013-01-30 02:08:00,26.5,25.2,29.65,North,357,13.0,26.0,95,0.00,,,0.00,WUHU216DAVISVP2,2013-01-30 08:08:00,
2013-01-30 02:13:00,26.3,25.0,29.65,NNE,18,13.0,26.0,95,0.00,,,0.00,WUHU216DAVISVP2,2013-01-30 08:13:00,
2013-01-30 02:18:00,26.2,24.9,29.66,North,352,14.0,26.0,95,0.00,,,0.00,WUHU216DAVISVP2,2013-01-30 08:18:00,
2013-01-30 02:23:00,26.2,24.9,29.66,North,350,8.0,26.0,95,0.00,,,0.00,WUHU216DAVISVP2,2013-01-30 08:23:00,
2013-01-30 02:28:00,26.1,24.9,29.66,ENE,63,15.0,25.0,95,0.00,,,0.00,WUHU216DAVISVP2,2013-01-30 08:28:00,
2013-01-30 02:33:00,25.9,24.6,29.66,North,11,8.0,20.0,95,0.00,,,0.00,WUHU216DAVISVP2,2013-01-30 08:33:00,
2013-01-30 02:38:00,25.9,24.6,29.66,NNW,346,13.0,19.0,95,0.00,,,0.00,WUHU216DAVISVP2,2013-01-30 08:38:00,
2013-01-30 02:43:00,25.8,24.6,29.67,WNW,288,3.0,18.0,95,0.00,,,0.00,WUHU216DAVISVP2,2013-01-30 08:43:00,
2013-01-30 02:48:00,25.6,24.4,29.67,NNW,333,7.0,17.0,95,0.00,,,0.00,WUHU216DAVISVP2,2013-01-30 08:48:00,
2013-01-30 02:53:00,25.4,24.2,29.68,NNW,347,10.0,17.0,95,0.00,,,0.00,WUHU216DAVISVP2,2013-01-30 08:53:00,
2013-01-30 02:58:00,25.3,24.1,29.68,NNW,332,10.0,22.0,95,0.00,,,0.00,WUHU216DAVISVP2,2013-01-30 08:58:00,
2013-01-30 03:03:00,25.2,24.0,29.68,NNE,31,8.0,22.0,95,0.00,,,0.00,WUHU216DAVISVP2,2013-01-30 09:03:00,
2013-01-30 03:08:00,25.2,24.0,29.68,NNE,12,7.0,24.0,95,0.00,,,0.00,WUHU216DAVISVP2,2013-01-30 09:08:00,
2013-01-30 03:13:00,25.0,23.8,29.69,North,6,13.0,24.0,95,0.00,,,0.00,WUHU216DAVISVP2,2013-01-30 09:13:00,
2013-01-30 03:18:00,25.0,23.7,29.69,North,359,12.0,24.0,95,0.00,,,0.00,WUHU216DAVISVP2,2013-01-30 09:18:00,
2013-01-30 03:23:00,24.9,23.7,29.69,North,8,18.0,21.0,95,0.00,,,0.00,WUHU216DAVISVP2,2013-01-30 09:23:00,
2013-01-30 03:28:00,24.9,23.7,29.69,NNE,32,11.0,20.0,95,0.00,,,0.00,WUHU216DAVISVP2,2013-01-30 09:28:00,
2013-01-30 03:33:00,24.7,23.2,29.69,North,355,14.0,20.0,94,0.00,,,0.00,WUHU216DAVISVP2,2013-01-30 09:33:00,
2013-01-30 03:38:00,24.6,23.1,29.69,NNE,23,17.0,20.0,94,0.00,,,0.00,WUHU216DAVISVP2,2013-01-30 09:38:00,
2013-01-30 03:43:00,24.4,22.9,29.69,NNE,32,8.0,22.0,94,0.00,,,0.00,WUHU216DAVISVP2,2013-01-30 09:43:00,
2013-01-30 03:48:00,24.3,22.8,29.69,North,352,11.0,22.0,94,0.00,,,0.00,WUHU216DAVISVP2,2013-01-30 09:48:00,
2013-01-30 03:53:00,24.3,22.8,29.69,North,8,9.0,22.0,94,0.00,,,0.00,WUHU216DAVISVP2,2013-01-30 09:53:00,
2013-01-30 03:58:00,24.2,22.7,29.69,North,11,12.0,25.0,94,0.00,,,0.00,WUHU216DAVISVP2,2013-01-30 09:58:00,
2013-01-30 04:03:00,24.1,22.6,29.69,North,3,12.0,25.0,94,0.00,,,0.00,WUHU216DAVISVP2,2013-01-30 10:03:00,
2013-01-30 04:08:00,24.1,22.6,29.69,NNE,19,11.0,25.0,94,0.00,,,0.00,WUHU216DAVISVP2,2013-01-30 10:08:00,
2013-01-30 04:13:00,24.0,22.5,29.69,NE,34,12.0,25.0,94,0.00,,,0.00,WUHU216DAVISVP2,2013-01-30 10:13:00,
2013-01-30 04:18:00,24.0,22.5,29.69,NW,326,11.0,24.0,94,0.00,,,0.00,WUHU216DAVISVP2,2013-01-30 10:18:00,
2013-01-30 04:23:00,24.0,22.5,29.69,North,11,12.0,23.0,94,0.00,,,0.00,WUHU216DAVISVP2,2013-01-30 10:23:00,
2013-01-30 04:28:00,23.9,22.4,29.69,NNE,18,12.0,23.0,94,0.00,,,0.00,WUHU216DAVISVP2,2013-01-30 10:28:00,
2013-01-30 04:33:00,23.9,22.4,29.70,NNW,339,8.0,20.0,94,0.00,,,0.00,WUHU216DAVISVP2,2013-01-30 10:33:00,
2013-01-30 04:38:00,23.9,22.4,29.70,NNW,330,7.0,19.0,94,0.00,,,0.00,WUHU216DAVISVP2,2013-01-30 10:38:00,
2013-01-30 04:43:00,23.8,22.3,29.70,North,357,11.0,19.0,94,0.00,,,0.00,WUHU216DAVISVP2,2013-01-30 10:43:00,
2013-01-30 04:48:00,23.7,22.2,29.70,North,360,16.0,19.0,94,0.00,,,0.00,WUHU216DAVISVP2,2013-01-30 10:48:00,
2013-01-30 04:53:00,23.7,22.2,29.70,North,6,5.0,18.0,94,0.00,,,0.00,WUHU216DAVISVP2,2013-01-30 10:53:00,
2013-01-30 04:58:00,23.7,22.2,29.70,NNE,25,6.0,18.0,94,0.00,,,0.00,WUHU216DAVISVP2,2013-01-30 10:58:00,
2013-01-30 05:03:00,23.6,22.1,29.70,NNW,345,4.0,15.0,94,0.00,,,0.00,WUHU216DAVISVP2,2013-01-30 11:03:00,
2013-01-30 05:08:00,23.6,22.1,29.71,NE,37,13.0,13.0,94,0.00,,,0.00,WUHU216DAVISVP2,2013-01-30 11:08:00,
2013-01-30 05:13:00,23.5,22.0,29.71,NNE,22,6.0,15.0,94,0.00,,,0.00,WUHU216DAVISVP2,2013-01-30 11:13:00,
2013-01-30 05:18:00,23.5,22.0,29.71,NE,34,4.0,15.0,94,0.00,,,0.00,WUHU216DAVISVP2,2013-01-30 11:18:00,
2013-01-30 05:23:00,23.5,22.0,29.71,NNE,15,5.0,18.0,94,0.00,,,0.00,WUHU216DAVISVP2,2013-01-30 11:23:00,
2013-01-30 05:28:00,23.4,21.9,29.71,NNE,27,10.0,18.0,94,0.00,,,0.00,WUHU216DAVISVP2,2013-01-30 11:28:00,
2013-01-30 05:33:00,23.4,21.9,29.71,North,11,6.0,16.0,94,0.00,,,0.00,WUHU216DAVISVP2,2013-01-30 11:33:00,
2013-01-30 05:38:00,23.4,21.9,29.71,NE,34,8.0,17.0,94,0.00,,,0.00,WUHU216DAVISVP2,2013-01-30 11:38:00,
2013-01-30 05:43:00,23.3,21.8,29.71,NNW,340,8.0,17.0,94,0.00,,,0.00,WUHU216DAVISVP2,2013-01-30 11:43:00,
2013-01-30 05:48:00,23.3,21.8,29.71,NNW,348,9.0,17.0,94,0.00,,,0.00,WUHU216DAVISVP2,2013-01-30 11:48:00,
2013-01-30 05:54:00,22.9,21.4,29.72,North,8,13.0,28.0,94,0.00,,,0.00,WUHU216DAVISVP2,2013-01-30 11:54:00,
2013-01-30 05:59:00,22.5,20.7,29.72,North,352,23.0,28.0,93,0.00,,,0.00,WUHU216DAVISVP2,2013-01-30 11:59:00,
2013-01-30 06:04:00,22.3,20.8,29.72,NE,39,12.0,27.0,94,0.00,,,0.00,WUHU216DAVISVP2,2013-01-30 12:04:00,
2013-01-30 06:09:00,22.1,20.6,29.72,NNW,346,11.0,27.0,94,0.00,,,0.00,WUHU216DAVISVP2,2013-01-30 12:09:00,
2013-01-30 06:14:00,22.0,20.5,29.72,NNE,33,15.0,25.0,94,0.00,,,0.00,WUHU216DAVISVP2,2013-01-30 12:14:00,
2013-01-30 06:19:00,22.0,20.5,29.72,NE,41,12.0,19.0,94,0.00,,,0.00,WUHU216DAVISVP2,2013-01-30 12:19:00,
2013-01-30 06:24:00,22.0,20.5,29.72,NNE,16,9.0,18.0,94,0.00,,,0.00,WUHU216DAVISVP2,2013-01-30 12:24:00,
2013-01-30 06:29:00,22.1,20.6,29.72,North,8,9.0,18.0,94,0.00,,,0.00,WUHU216DAVISVP2,2013-01-30 12:29:00,
2013-01-30 06:34:00,22.1,20.6,29.72,North,9,8.0,19.0,94,0.00,,,0.00,WUHU216DAVISVP2,2013-01-30 12:34:00,
2013-01-30 06:39:00,22.2,20.7,29.73,North,8,14.0,22.0,94,0.00,,,0.00,WUHU216DAVISVP2,2013-01-30 12:39:00,
2013-01-30 06:44:00,22.1,20.6,29.73,NNE,19,18.0,22.0,94,0.00,,,0.00,WUHU216DAVISVP2,2013-01-30 12:44:00,
2013-01-30 06:50:00,22.1,20.6,29.72,NW,316,9.0,22.0,94,0.00,,,0.00,WUHU216DAVISVP2,2013-01-30 12:50:00,
2013-01-30 06:55:00,22.0,20.5,29.72,NNW,330,16.0,25.0,94,0.00,,,0.00,WUHU216DAVISVP2,2013-01-30 12:55:00,
2013-01-30 07:00:00,21.8,20.3,29.72,NNE,12,22.0,26.0,94,0.00,,,0.00,WUHU216DAVISVP2,2013-01-30 13:00:00,
2013-01-30 07:05:00,21.7,19.9,29.73,NNE,16,20.0,26.0,93,0.00,,,0.00,WUHU216DAVISVP2,2013-01-30 13:05:00,
2013-01-30 07:10:00,21.7,19.9,29.73,NW,319,8.0,28.0,93,0.00,,,0.00,WUHU216DAVISVP2,2013-01-30 13:10:00,
2013-01-30 07:15:00,21.7,19.9,29.73,NNE,17,17.0,28.0,93,0.00,,,0.00,WUHU216DAVISVP2,2013-01-30 13:15:00,
2013-01-30 07:20:00,21.8,20.1,29.74,North,8,15.0,27.0,93,0.00,,,0.00,WUHU216DAVISVP2,2013-01-30 13:20:00,
2013-01-30 07:25:00,21.8,19.8,29.74,North,1,24.0,29.0,92,0.00,,,0.00,WUHU216DAVISVP2,2013-01-30 13:25:00,
2013-01-30 07:30:00,21.9,19.9,29.74,WNW,301,8.0,29.0,92,0.00,,,0.00,WUHU216DAVISVP2,2013-01-30 13:30:00,
2013-01-30 07:35:00,21.9,19.6,29.74,North,6,19.0,29.0,91,0.00,,,0.00,WUHU216DAVISVP2,2013-01-30 13:35:00,
2013-01-30 07:40:00,22.0,19.5,29.74,North,352,12.0,28.0,90,0.00,,,0.00,WUHU216DAVISVP2,2013-01-30 13:40:00,
2013-01-30 07:45:00,22.0,19.2,29.75,NE,35,12.0,28.0,89,0.00,,,0.00,WUHU216DAVISVP2,2013-01-30 13:45:00,
2013-01-30 07:50:00,22.1,19.0,29.75,North,354,12.0,27.0,88,0.00,,,0.00,WUHU216DAVISVP2,2013-01-30 13:50:00,
2013-01-30 07:55:00,22.2,18.9,29.75,NNE,20,14.0,27.0,87,0.00,,,0.00,WUHU216DAVISVP2,2013-01-30 13:55:00,
2013-01-30 08:00:00,22.3,18.7,29.75,NNW,329,11.0,26.0,86,0.00,,,0.00,WUHU216DAVISVP2,2013-01-30 14:00:00,
2013-01-30 08:04:00,22.3,18.7,29.76,North,8,13.0,26.0,86,0.00,,,0.00,WUHU216DAVISVP2,2013-01-30 14:04:00,
2013-01-30 08:10:00,22.4,18.5,29.76,NNW,334,9.0,26.0,85,0.00,,,0.00,WUHU216DAVISVP2,2013-01-30 14:10:00,
2013-01-30 08:15:00,22.4,18.3,29.76,North,355,16.0,26.0,84,0.00,,,0.00,WUHU216DAVISVP2,2013-01-30 14:15:00,
2013-01-30 08:20:00,22.5,18.1,29.76,NNW,337,7.0,26.0,83,0.00,,,0.00,WUHU216DAVISVP2,2013-01-30 14:20:00,
2013-01-30 08:25:00,22.6,18.2,29.77,North,354,6.0,24.0,83,0.00,,,0.00,WUHU216DAVISVP2,2013-01-30 14:25:00,
2013-01-30 08:30:00,22.7,18.3,29.77,NNE,23,8.0,24.0,83,0.00,,,0.00,WUHU216DAVISVP2,2013-01-30 14:30:00,
2013-01-30 08:35:00,22.8,18.4,29.77,North,6,7.0,25.0,83,0.00,,,0.00,WUHU216DAVISVP2,2013-01-30 14:35:00,
2013-01-30 08:40:00,22.7,18.6,29.78,NNE,30,9.0,25.0,84,0.00,,,0.00,WUHU216DAVISVP2,2013-01-30 14:40:00,
2013-01-30 08:45:00,22.6,18.7,29.78,NNW,327,10.0,24.0,85,0.00,,,0.00,WUHU216DAVISVP2,2013-01-30 14:45:00,
2013-01-30 08:50:00,22.5,18.9,29.78,North,349,11.0,24.0,86,0.00,,,0.00,WUHU216DAVISVP2,2013-01-30 14:50:00,
2013-01-30 08:55:00,22.4,18.5,29.79,NW,325,9.0,29.0,85,0.00,,,0.00,WUHU216DAVISVP2,2013-01-30 14:55:00,
2013-01-30 09:00:00,22.4,18.3,29.79,North,8,9.0,29.0,84,0.00,,,0.00,WUHU216DAVISVP2,2013-01-30 15:00:00,
2013-01-30 09:05:00,22.3,18.2,29.79,North,11,9.0,28.0,84,0.00,,,0.00,WUHU216DAVISVP2,2013-01-30 15:05:00,
2013-01-30 09:10:00,22.3,18.2,29.79,NW,318,15.0,28.0,84,0.00,,,0.00,WUHU216DAVISVP2,2013-01-30 15:10:00,
2013-01-30 09:15:00,22.1,17.7,29.79,NNE,20,12.0,22.0,83,0.00,,,0.00,WUHU216DAVISVP2,2013-01-30 15:15:00,
2013-01-30 09:20:00,22.2,17.5,29.79,North,8,13.0,21.0,82,0.00,,,0.00,WUHU216DAVISVP2,2013-01-30 15:20:00,
2013-01-30 09:25:00,22.3,16.8,29.79,WNW,297,9.0,25.0,79,0.00,,,0.00,WUHU216DAVISVP2,2013-01-30 15:25:00,
2013-01-30 09:30:00,22.4,16.6,29.79,North,355,11.0,27.0,78,0.00,,,0.00,WUHU216DAVISVP2,2013-01-30 15:30:00,
2013-01-30 09:35:00,22.6,16.8,29.79,North,355,8.0,27.0,78,0.00,,,0.00,WUHU216DAVISVP2,2013-01-30 15:35:00,
2013-01-30 09:40:00,22.7,15.7,29.80,NW,316,19.0,29.0,74,0.00,,,0.00,WUHU216DAVISVP2,2013-01-30 15:40:00,
2013-01-30 09:45:00,22.5,16.1,29.79,NNE,17,18.0,29.0,76,0.00,,,0.00,WUHU216DAVISVP2,2013-01-30 15:45:00,
2013-01-30 09:50:00,22.5,16.4,29.80,North,9,10.0,29.0,77,0.00,,,0.00,WUHU216DAVISVP2,2013-01-30 15:50:00,
2013-01-30 09:55:00,22.3,15.9,29.80,North,352,15.0,29.0,76,0.00,,,0.00,WUHU216DAVISVP2,2013-01-30 15:55:00,
2013-01-30 10:00:00,22.5,16.4,29.80,NNW,330,9.0,29.0,77,0.00,,,0.00,WUHU216DAVISVP2,2013-01-30 16:00:00,
2013-01-30 10:05:00,22.6,15.9,29.80,NNE,23,11.0,29.0,75,0.00,,,0.00,WUHU216DAVISVP2,2013-01-30 16:05:00,
2013-01-30 10:10:00,22.7,16.0,29.80,NW,313,9.0,24.0,75,0.00,,,0.00,WUHU216DAVISVP2,2013-01-30 16:10:00,
2013-01-30 10:15:00,22.8,16.1,29.80,NNW,345,17.0,22.0,75,0.00,,,0.00,WUHU216DAVISVP2,2013-01-30 16:15:00,
2013-01-30 10:20:00,22.9,16.2,29.80,NW,312,7.0,22.0,75,0.00,,,0.00,WUHU216DAVISVP2,2013-01-30 16:20:00,
2013-01-30 10:25:00,23.1,16.1,29.81,North,357,13.0,20.0,74,0.00,,,0.00,WUHU216DAVISVP2,2013-01-30 16:25:00,
2013-01-30 10:30:00,23.2,16.2,29.81,NNW,345,7.0,20.0,74,0.00,,,0.00,WUHU216DAVISVP2,2013-01-30 16:30:00,
2013-01-30 10:35:00,23.5,16.8,29.81,NNW,330,7.0,17.0,75,0.00,,,0.00,WUHU216DAVISVP2,2013-01-30 16:35:00,
2013-01-30 10:40:00,23.6,16.6,29.80,NE,37,15.0,17.0,74,0.00,,,0.00,WUHU216DAVISVP2,2013-01-30 16:40:00,
2013-01-30 10:45:00,23.5,16.5,29.81,NNE,31,11.0,22.0,74,0.00,,,0.00,WUHU216DAVISVP2,2013-01-30 16:45:00,
2013-01-30 10:50:00,23.3,16.0,29.80,North,1,11.0,26.0,73,0.00,,,0.00,WUHU216DAVISVP2,2013-01-30 16:50:00,
2013-01-30 10:55:00,23.4,16.4,29.81,NW,326,12.0,26.0,74,0.00,,,0.00,WUHU216DAVISVP2,2013-01-30 16:55:00,
2013-01-30 11:00:00,23.6,16.9,29.81,NNW,338,6.0,25.0,75,0.00,,,0.00,WUHU216DAVISVP2,2013-01-30 17:00:00,
2013-01-30 11:05:00,23.9,16.9,29.81,West,281,6.0,25.0,74,0.00,,,0.00,WUHU216DAVISVP2,2013-01-30 17:05:00,
2013-01-30 11:10:00,23.9,16.9,29.81,NNE,26,19.0,23.0,74,0.00,,,0.00,WUHU216DAVISVP2,2013-01-30 17:10:00,
2013-01-30 11:15:00,23.8,17.1,29.81,NNW,332,14.0,22.0,75,0.00,,,0.00,WUHU216DAVISVP2,2013-01-30 17:15:00,
2013-01-30 11:20:00,23.7,17.0,29.81,North,8,11.0,21.0,75,0.00,,,0.00,WUHU216DAVISVP2,2013-01-30 17:20:00,
2013-01-30 11:25:00,23.7,17.0,29.81,NNW,342,11.0,24.0,75,0.00,,,0.00,WUHU216DAVISVP2,2013-01-30 17:25:00,
2013-01-30 11:30:00,23.7,16.4,29.81,North,5,10.0,24.0,73,0.00,,,0.00,WUHU216DAVISVP2,2013-01-30 17:30:00,
2013-01-30 11:35:00,23.9,16.9,29.81,North,8,15.0,23.0,74,0.00,,,0.00,WUHU216DAVISVP2,2013-01-30 17:35:00,
2013-01-30 11:40:00,24.0,16.3,29.81,NNW,345,17.0,27.0,72,0.00,,,0.00,WUHU216DAVISVP2,2013-01-30 17:40:00,
2013-01-30 11:45:00,24.1,16.1,29.81,North,8,11.0,27.0,71,0.00,,,0.00,WUHU216DAVISVP2,2013-01-30 17:45:00,
2013-01-30 11:50:00,24.6,16.9,29.81,NNW,340,10.0,27.0,72,0.00,,,0.00,WUHU216DAVISVP2,2013-01-30 17:50:00,
2013-01-30 11:55:00,24.5,16.5,29.81,NNW,339,10.0,25.0,71,0.00,,,0.00,WUHU216DAVISVP2,2013-01-30 17:55:00,
2013-01-30 12:00:00,24.7,17.3,29.81,NW,316,5.0,24.0,73,0.00,,,0.00,WUHU216DAVISVP2,2013-01-30 18:00:00,
2013-01-30 12:05:00,24.6,16.6,29.81,NNE,18,13.0,23.0,71,0.00,,,0.00,WUHU216DAVISVP2,2013-01-30 18:05:00,
2013-01-30 12:10:00,24.3,16.6,29.81,NNW,333,10.0,23.0,72,0.00,,,0.00,WUHU216DAVISVP2,2013-01-30 18:10:00,
2013-01-30 12:15:00,24.2,16.5,29.81,NW,326,11.0,23.0,72,0.00,,,0.00,WUHU216DAVISVP2,2013-01-30 18:15:00,
2013-01-30 12:20:00,24.0,16.0,29.81,NNE,30,19.0,24.0,71,0.00,,,0.00,WUHU216DAVISVP2,2013-01-30 18:20:00,
2013-01-30 12:25:00,23.9,16.2,29.81,NW,323,13.0,24.0,72,0.00,,,0.00,WUHU216DAVISVP2,2013-01-30 18:25:00,
2013-01-30 12:30:00,24.0,16.0,29.81,NNW,342,9.0,24.0,71,0.00,,,0.00,WUHU216DAVISVP2,2013-01-30 18:30:00,
2013-01-30 12:35:00,24.4,16.4,29.81,NNE,14,21.0,24.0,71,0.00,,,0.00,WUHU216DAVISVP2,2013-01-30 18:35:00,
2013-01-30 12:40:00,24.3,16.0,29.81,NNW,346,12.0,22.0,70,0.00,,,0.00,WUHU216DAVISVP2,2013-01-30 18:40:00,
2013-01-30 12:45:00,24.2,16.1,29.81,NNW,333,8.0,22.0,71,0.00,,,0.00,WUHU216DAVISVP2,2013-01-30 18:45:00,
2013-01-30 12:50:00,24.4,16.4,29.81,NNE,18,7.0,22.0,71,0.00,,,0.00,WUHU216DAVISVP2,2013-01-30 18:50:00,
2013-01-30 12:55:00,24.7,16.6,29.81,NW,305,7.0,21.0,71,0.00,,,0.00,WUHU216DAVISVP2,2013-01-30 18:55:00,
2013-01-30 13:00:00,24.8,16.4,29.81,NNE,14,11.0,20.0,70,0.00,,,0.00,WUHU216DAVISVP2,2013-01-30 19:00:00,
2013-01-30 13:05:00,24.7,15.6,29.81,North,11,10.0,23.0,68,0.00,,,0.00,WUHU216DAVISVP2,2013-01-30 19:05:00,
2013-01-30 13:10:00,24.9,16.5,29.81,North,8,7.0,23.0,70,0.00,,,0.00,WUHU216DAVISVP2,2013-01-30 19:10:00,
2013-01-30 13:16:00,25.0,16.3,29.81,NNE,14,9.0,22.0,69,0.00,,,0.00,WUHU216DAVISVP2,2013-01-30 19:16:00,
2013-01-30 13:21:00,25.0,16.0,29.81,ENE,72,12.0,24.0,68,0.00,,,0.00,WUHU216DAVISVP2,2013-01-30 19:21:00,
2013-01-30 13:26:00,25.1,16.4,29.81,NNW,342,6.0,24.0,69,0.00,,,0.00,WUHU216DAVISVP2,2013-01-30 19:26:00,
2013-01-30 13:31:00,25.3,16.2,29.81,NNE,25,11.0,24.0,68,0.00,,,0.00,WUHU216DAVISVP2,2013-01-30 19:31:00,
2013-01-30 13:36:00,25.1,15.7,29.81,North,352,13.0,23.0,67,0.00,,,0.00,WUHU216DAVISVP2,2013-01-30 19:36:00,
2013-01-30 13:40:00,25.0,15.3,29.81,North,5,15.0,25.0,66,0.00,,,0.00,WUHU216DAVISVP2,2013-01-30 19:40:00,
2013-01-30 13:45:00,24.9,15.9,29.80,NNE,18,14.0,25.0,68,0.00,,,0.00,WUHU216DAVISVP2,2013-01-30 19:45:00,
2013-01-30 13:50:00,25.3,16.2,29.80,North,1,7.0,24.0,68,0.00,,,0.00,WUHU216DAVISVP2,2013-01-30 19:50:00,
2013-01-30 13:56:00,25.0,15.6,29.81,North,354,18.0,24.0,67,0.00,,,0.00,WUHU216DAVISVP2,2013-01-30 19:56:00,
2013-01-30 14:01:00,24.7,15.7,29.80,WNW,285,8.0,21.0,68,0.00,,,0.00,WUHU216DAVISVP2,2013-01-30 20:01:00,
2013-01-30 14:06:00,24.4,15.1,29.80,North,7,11.0,22.0,67,0.00,,,0.00,WUHU216DAVISVP2,2013-01-30 20:06:00,
2013-01-30 14:11:00,24.3,15.3,29.80,WNW,295,6.0,22.0,68,0.00,,,0.00,WUHU216DAVISVP2,2013-01-30 20:11:00,
2013-01-30 14:16:00,24.3,15.0,29.80,NNW,340,13.0,23.0,67,0.00,,,0.00,WUHU216DAVISVP2,2013-01-30 20:16:00,
2013-01-30 14:21:00,24.2,15.2,29.80,North,11,14.0,23.0,68,0.00,,,0.00,WUHU216DAVISVP2,2013-01-30 20:21:00,
2013-01-30 14:26:00,24.6,15.5,29.81,NW,326,5.0,23.0,68,0.00,,,0.00,WUHU216DAVISVP2,2013-01-30 20:26:00,
2013-01-30 14:31:00,25.3,15.9,29.80,North,4,12.0,23.0,67,0.00,,,0.00,WUHU216DAVISVP2,2013-01-30 20:31:00,
2013-01-30 14:36:00,25.0,14.6,29.80,North,5,12.0,23.0,64,0.00,,,0.00,WUHU216DAVISVP2,2013-01-30 20:36:00,
2013-01-30 14:41:00,24.9,14.8,29.80,NNW,347,8.0,23.0,65,0.00,,,0.00,WUHU216DAVISVP2,2013-01-30 20:41:00,
2013-01-30 14:46:00,24.9,14.9,29.81,NNW,335,13.0,23.0,65,0.00,,,0.00,WUHU216DAVISVP2,2013-01-30 20:46:00,
2013-01-30 14:51:00,24.8,14.4,29.81,NW,323,7.0,23.0,64,0.00,,,0.00,WUHU216DAVISVP2,2013-01-30 20:51:00,
2013-01-30 14:56:00,24.9,14.5,29.81,WNW,285,10.0,23.0,64,0.00,,,0.00,WUHU216DAVISVP2,2013-01-30 20:56:00,
2013-01-30 15:01:00,24.8,14.0,29.81,North,358,14.0,23.0,63,0.00,,,0.00,WUHU216DAVISVP2,2013-01-30 21:01:00,
2013-01-30 15:06:00,24.8,14.3,29.81,NW,326,5.0,23.0,64,0.00,,,0.00,WUHU216DAVISVP2,2013-01-30 21:06:00,
2013-01-30 15:11:00,25.0,14.6,29.81,NNW,348,16.0,20.0,64,0.00,,,0.00,WUHU216DAVISVP2,2013-01-30 21:11:00,
2013-01-30 15:16:00,24.7,14.3,29.81,NE,38,21.0,23.0,64,0.00,,,0.00,WUHU216DAVISVP2,2013-01-30 21:16:00,
2013-01-30 15:21:00,24.6,14.2,29.81,NNE,19,9.0,23.0,64,0.00,,,0.00,WUHU216DAVISVP2,2013-01-30 21:21:00,
2013-01-30 15:26:00,24.6,13.5,29.81,NNE,33,7.0,22.0,62,0.00,,,0.00,WUHU216DAVISVP2,2013-01-30 21:26:00,
2013-01-30 15:31:00,24.6,13.8,29.81,NNE,30,12.0,22.0,63,0.00,,,0.00,WUHU216DAVISVP2,2013-01-30 21:31:00,
2013-01-30 15:36:00,24.8,15.1,29.81,North,354,12.0,18.0,66,0.00,,,0.00,WUHU216DAVISVP2,2013-01-30 21:36:00,
2013-01-30 15:41:00,25.1,15.0,29.82,North,354,9.0,18.0,65,0.00,,,0.00,WUHU216DAVISVP2,2013-01-30 21:41:00,
2013-01-30 15:46:00,25.0,14.2,29.82,NNW,340,18.0,22.0,63,0.00,,,0.00,WUHU216DAVISVP2,2013-01-30 21:46:00,
2013-01-30 15:51:00,24.6,13.1,29.82,NW,308,15.0,23.0,61,0.00,,,0.00,WUHU216DAVISVP2,2013-01-30 21:51:00,
2013-01-30 15:56:00,24.4,13.2,29.83,NNW,342,12.0,23.0,62,0.00,,,0.00,WUHU216DAVISVP2,2013-01-30 21:56:00,
2013-01-30 16:01:00,24.0,13.3,29.83,NW,319,7.0,21.0,63,0.00,,,0.00,WUHU216DAVISVP2,2013-01-30 22:01:00,
2013-01-30 16:06:00,23.9,13.9,29.83,ENE,58,6.0,21.0,65,0.00,,,0.00,WUHU216DAVISVP2,2013-01-30 22:06:00,
2013-01-30 16:11:00,23.8,13.4,29.83,WNW,300,8.0,18.0,64,0.00,,,0.00,WUHU216DAVISVP2,2013-01-30 22:11:00,
2013-01-30 16:16:00,23.8,14.1,29.83,North,350,11.0,18.0,66,0.00,,,0.00,WUHU216DAVISVP2,2013-01-30 22:16:00,
2013-01-30 16:21:00,23.7,14.1,29.83,North,354,8.0,18.0,66,0.00,,,0.00,WUHU216DAVISVP2,2013-01-30 22:21:00,
2013-01-30 16:27:00,23.8,14.5,29.83,NW,315,9.0,18.0,67,0.00,,,0.00,WUHU216DAVISVP2,2013-01-30 22:27:00,
2013-01-30 16:32:00,23.8,14.5,29.83,WNW,295,9.0,15.0,67,0.00,,,0.00,WUHU216DAVISVP2,2013-01-30 22:32:00,
2013-01-30 16:38:00,23.7,14.4,29.84,North,349,5.0,14.0,67,0.00,,,0.00,WUHU216DAVISVP2,2013-01-30 22:38:00,
2013-01-30 16:43:00,23.6,14.3,29.84,NNW,342,5.0,14.0,67,0.00,,,0.00,WUHU216DAVISVP2,2013-01-30 22:43:00,
2013-01-30 16:49:00,23.4,14.4,29.84,NW,319,8.0,14.0,68,0.00,,,0.00,WUHU216DAVISVP2,2013-01-30 22:49:00,
2013-01-30 16:54:00,23.2,14.3,29.84,NW,309,6.0,14.0,68,0.00,,,0.00,WUHU216DAVISVP2,2013-01-30 22:54:00,
2013-01-30 16:59:00,23.2,14.3,29.84,North,352,5.0,14.0,68,0.00,,,0.00,WUHU216DAVISVP2,2013-01-30 22:59:00,
2013-01-30 17:04:00,23.2,14.3,29.84,North,4,10.0,16.0,68,0.00,,,0.00,WUHU216DAVISVP2,2013-01-30 23:04:00,
2013-01-30 17:09:00,23.2,14.6,29.85,NNW,334,4.0,16.0,69,0.00,,,0.00,WUHU216DAVISVP2,2013-01-30 23:09:00,
2013-01-30 17:14:00,23.2,14.6,29.85,NNW,330,11.0,16.0,69,0.00,,,0.00,WUHU216DAVISVP2,2013-01-30 23:14:00,
2013-01-30 17:19:00,23.1,14.8,29.85,North,9,7.0,14.0,70,0.00,,,0.00,WUHU216DAVISVP2,2013-01-30 23:19:00,
2013-01-30 17:24:00,23.1,14.8,29.84,North,355,6.0,13.0,70,0.00,,,0.00,WUHU216DAVISVP2,2013-01-30 23:24:00,
2013-01-30 17:29:00,23.2,14.9,29.85,NW,314,1.0,13.0,70,0.00,,,0.00,WUHU216DAVISVP2,2013-01-30 23:29:00,
2013-01-30 17:34:00,23.2,15.2,29.85,WSW,255,4.0,11.0,71,0.00,,,0.00,WUHU216DAVISVP2,2013-01-30 23:34:00,
2013-01-30 17:39:00,23.2,15.2,29.85,WNW,297,4.0,10.0,71,0.00,,,0.00,WUHU216DAVISVP2,2013-01-30 23:39:00,
2013-01-30 17:44:00,23.3,15.0,29.85,North,357,9.0,9.0,70,0.00,,,0.00,WUHU216DAVISVP2,2013-01-30 23:44:00,
2013-01-30 17:49:00,23.2,14.6,29.85,WNW,294,5.0,11.0,69,0.00,,,0.00,WUHU216DAVISVP2,2013-01-30 23:49:00,
2013-01-30 17:54:00,23.2,14.9,29.85,WNW,295,4.0,11.0,70,0.00,,,0.00,WUHU216DAVISVP2,2013-01-30 23:54:00,
2013-01-30 17:59:00,23.1,15.1,29.85,North,357,8.0,11.0,71,0.00,,,0.00,WUHU216DAVISVP2,2013-01-30 23:59:00,
2013-01-30 18:04:00,23.0,14.7,29.85,WNW,291,6.0,11.0,70,0.00,,,0.00,WUHU216DAVISVP2,2013-01-31 00:04:00,
2013-01-30 18:09:00,23.0,15.0,29.85,North,352,2.0,11.0,71,0.00,,,0.00,WUHU216DAVISVP2,2013-01-31 00:09:00,
2013-01-30 18:14:00,23.0,15.0,29.85,NW,316,3.0,10.0,71,0.00,,,0.00,WUHU216DAVISVP2,2013-01-31 00:14:00,
2013-01-30 18:19:00,23.1,15.5,29.85,NNW,331,2.0,8.0,72,0.00,,,0.00,WUHU216DAVISVP2,2013-01-31 00:19:00,
2013-01-30 18:24:00,23.0,15.4,29.85,WNW,301,1.0,7.0,72,0.00,,,0.00,WUHU216DAVISVP2,2013-01-31 00:24:00,
2013-01-30 18:29:00,23.0,15.7,29.86,NNW,335,1.0,7.0,73,0.00,,,0.00,WUHU216DAVISVP2,2013-01-31 00:29:00,
2013-01-30 18:34:00,23.0,15.4,29.86,NNW,331,1.0,6.0,72,0.00,,,0.00,WUHU216DAVISVP2,2013-01-31 00:34:00,
2013-01-30 18:39:00,23.0,15.7,29.86,NW,321,2.0,6.0,73,0.00,,,0.00,WUHU216DAVISVP2,2013-01-31 00:39:00,
2013-01-30 18:44:00,22.9,15.6,29.86,NW,308,4.0,5.0,73,0.00,,,0.00,WUHU216DAVISVP2,2013-01-31 00:44:00,
2013-01-30 18:49:00,22.9,15.3,29.86,NNW,340,2.0,5.0,72,0.00,,,0.00,WUHU216DAVISVP2,2013-01-31 00:49:00,
2013-01-30 18:54:00,22.7,15.4,29.86,West,275,3.0,5.0,73,0.00,,,0.00,WUHU216DAVISVP2,2013-01-31 00:54:00,
2013-01-30 18:59:00,22.5,14.6,29.86,NNW,345,5.0,8.0,71,0.00,,,0.00,WUHU216DAVISVP2,2013-01-31 00:59:00,
2013-01-30 19:04:00,22.4,14.5,29.86,WNW,295,3.0,12.0,71,0.00,,,0.00,WUHU216DAVISVP2,2013-01-31 01:04:00,
2013-01-30 19:09:00,22.2,14.3,29.86,NW,318,3.0,12.0,71,0.00,,,0.00,WUHU216DAVISVP2,2013-01-31 01:09:00,
2013-01-30 19:14:00,22.0,14.1,29.86,NW,309,3.0,12.0,71,0.00,,,0.00,WUHU216DAVISVP2,2013-01-31 01:14:00,
2013-01-30 19:19:00,21.7,14.1,29.86,NW,309,1.0,7.0,72,0.00,,,0.00,WUHU216DAVISVP2,2013-01-31 01:19:00,
2013-01-30 19:24:00,21.5,13.9,29.87,NW,312,4.0,7.0,72,0.00,,,0.00,WUHU216DAVISVP2,2013-01-31 01:24:00,
2013-01-30 19:29:00,21.4,13.8,29.87,NW,326,6.0,9.0,72,0.00,,,0.00,WUHU216DAVISVP2,2013-01-31 01:29:00,
2013-01-30 19:34:00,21.3,14.0,29.87,NNW,334,5.0,9.0,73,0.00,,,0.00,WUHU216DAVISVP2,2013-01-31 01:34:00,
2013-01-30 19:39:00,21.1,13.8,29.87,North,5,5.0,9.0,73,0.00,,,0.00,WUHU216DAVISVP2,2013-01-31 01:39:00,
2013-01-30 19:44:00,21.1,13.8,29.87,NNW,347,5.0,9.0,73,0.00,,,0.00,WUHU216DAVISVP2,2013-01-31 01:44:00,
2013-01-30 19:49:00,20.9,14.0,29.87,NW,305,5.0,9.0,74,0.00,,,0.00,WUHU216DAVISVP2,2013-01-31 01:49:00,
2013-01-30 19:54:00,20.7,13.8,29.87,NW,319,4.0,9.0,74,0.00,,,0.00,WUHU216DAVISVP2,2013-01-31 01:54:00,
2013-01-30 19:59:00,20.5,13.9,29.87,NW,312,3.0,9.0,75,0.00,,,0.00,WUHU216DAVISVP2,2013-01-31 01:59:00,
2013-01-30 20:04:00,20.3,13.7,29.87,NNW,343,2.0,9.0,75,0.00,,,0.00,WUHU216DAVISVP2,2013-01-31 02:04:00,
2013-01-30 20:09:00,20.1,13.8,29.87,North,357,3.0,9.0,76,0.00,,,0.00,WUHU216DAVISVP2,2013-01-31 02:09:00,
2013-01-30 20:14:00,19.9,13.6,29.87,NNE,20,2.0,8.0,76,0.00,,,0.00,WUHU216DAVISVP2,2013-01-31 02:14:00,
2013-01-30 20:19:00,19.7,13.7,29.88,NNW,333,6.0,8.0,77,0.00,,,0.00,WUHU216DAVISVP2,2013-01-31 02:19:00,
2013-01-30 20:24:00,19.4,13.4,29.87,NW,323,2.0,7.0,77,0.00,,,0.00,WUHU216DAVISVP2,2013-01-31 02:24:00,
2013-01-30 20:29:00,19.2,13.2,29.87,NNE,18,4.0,8.0,77,0.00,,,0.00,WUHU216DAVISVP2,2013-01-31 02:29:00,
2013-01-30 20:34:00,19.0,13.0,29.88,NNE,14,3.0,9.0,77,0.00,,,0.00,WUHU216DAVISVP2,2013-01-31 02:34:00,
2013-01-30 20:39:00,18.7,13.0,29.88,NNW,338,5.0,9.0,78,0.00,,,0.00,WUHU216DAVISVP2,2013-01-31 02:39:00,
2013-01-30 20:44:00,18.4,12.7,29.88,NNE,14,7.0,12.0,78,0.00,,,0.00,WUHU216DAVISVP2,2013-01-31 02:44:00,
2013-01-30 20:49:00,18.3,12.6,29.88,NE,39,6.0,12.0,78,0.00,,,0.00,WUHU216DAVISVP2,2013-01-31 02:49:00,
2013-01-30 20:54:00,18.2,12.5,29.88,WNW,300,3.0,12.0,78,0.00,,,0.00,WUHU216DAVISVP2,2013-01-31 02:54:00,
2013-01-30 20:59:00,18.1,12.4,29.88,North,359,7.0,11.0,78,0.00,,,0.00,WUHU216DAVISVP2,2013-01-31 02:59:00,
2013-01-30 21:04:00,18.0,12.3,29.88,NW,323,5.0,11.0,78,0.00,,,0.00,WUHU216DAVISVP2,2013-01-31 03:04:00,
2013-01-30 21:09:00,17.9,12.2,29.88,NNW,338,4.0,12.0,78,0.00,,,0.00,WUHU216DAVISVP2,2013-01-31 03:09:00,
2013-01-30 21:14:00,17.8,12.1,29.88,NNW,338,5.0,12.0,78,0.00,,,0.00,WUHU216DAVISVP2,2013-01-31 03:14:00,
2013-01-30 21:19:00,17.7,12.0,29.88,NNE,13,3.0,11.0,78,0.00,,,0.00,WUHU216DAVISVP2,2013-01-31 03:19:00,
2013-01-30 21:24:00,17.5,11.8,29.88,North,9,3.0,11.0,78,0.00,,,0.00,WUHU216DAVISVP2,2013-01-31 03:24:00,
2013-01-30 21:29:00,17.3,11.6,29.88,NE,39,3.0,8.0,78,0.00,,,0.00,WUHU216DAVISVP2,2013-01-31 03:29:00,
2013-01-30 21:34:00,17.1,11.4,29.88,NNW,331,5.0,8.0,78,0.00,,,0.00,WUHU216DAVISVP2,2013-01-31 03:34:00,
2013-01-30 21:39:00,17.0,11.3,29.89,NNW,339,3.0,8.0,78,0.00,,,0.00,WUHU216DAVISVP2,2013-01-31 03:39:00,
2013-01-30 21:44:00,16.9,11.2,29.89,NW,319,3.0,10.0,78,0.00,,,0.00,WUHU216DAVISVP2,2013-01-31 03:44:00,
2013-01-30 21:49:00,16.8,11.1,29.89,North,350,4.0,10.0,78,0.00,,,0.00,WUHU216DAVISVP2,2013-01-31 03:49:00,
2013-01-30 21:54:00,16.7,11.3,29.89,NW,326,5.0,9.0,79,0.00,,,0.00,WUHU216DAVISVP2,2013-01-31 03:54:00,
2013-01-30 21:59:00,16.6,11.2,29.89,NNE,20,5.0,9.0,79,0.00,,,0.00,WUHU216DAVISVP2,2013-01-31 03:59:00,
2013-01-30 22:04:00,16.6,11.2,29.89,North,1,4.0,8.0,79,0.00,,,0.00,WUHU216DAVISVP2,2013-01-31 04:04:00,
2013-01-30 22:09:00,16.5,11.1,29.89,NE,41,4.0,7.0,79,0.00,,,0.00,WUHU216DAVISVP2,2013-01-31 04:09:00,
2013-01-30 22:14:00,16.4,11.0,29.89,North,356,4.0,8.0,79,0.00,,,0.00,WUHU216DAVISVP2,2013-01-31 04:14:00,
2013-01-30 22:19:00,16.4,11.0,29.89,East,81,2.0,8.0,79,0.00,,,0.00,WUHU216DAVISVP2,2013-01-31 04:19:00,
2013-01-30 22:24:00,16.4,11.0,29.90,NNE,16,8.0,8.0,79,0.00,,,0.00,WUHU216DAVISVP2,2013-01-31 04:24:00,
2013-01-30 22:29:00,16.4,10.8,29.90,NNW,347,3.0,8.0,78,0.00,,,0.00,WUHU216DAVISVP2,2013-01-31 04:29:00,
2013-01-30 22:34:00,16.5,10.8,29.90,NNW,341,4.0,9.0,78,0.00,,,0.00,WUHU216DAVISVP2,2013-01-31 04:34:00,
2013-01-30 22:39:00,16.6,10.9,29.90,NNW,341,4.0,9.0,78,0.00,,,0.00,WUHU216DAVISVP2,2013-01-31 04:39:00,
2013-01-30 22:45:00,16.6,10.7,29.90,NNW,333,5.0,13.0,77,0.00,,,0.00,WUHU216DAVISVP2,2013-01-31 04:45:00,
2013-01-30 22:50:00,16.5,10.3,29.90,North,354,7.0,17.0,76,0.00,,,0.00,WUHU216DAVISVP2,2013-01-31 04:50:00,
2013-01-30 22:55:00,16.4,10.2,29.90,NW,323,6.0,17.0,76,0.00,,,0.00,WUHU216DAVISVP2,2013-01-31 04:55:00,
2013-01-30 23:00:00,16.4,10.5,29.90,NNW,328,8.0,16.0,77,0.00,,,0.00,WUHU216DAVISVP2,2013-01-31 05:00:00,
2013-01-30 23:01:00,16.4,10.5,29.90,NW,323,8.0,16.0,77,0.00,,,0.00,WUHU216DAVISVP2,2013-01-31 05:01:00,
2013-01-30 23:07:00,16.2,10.0,29.90,North,11,5.0,12.0,76,0.00,,,0.00,WUHU216DAVISVP2,2013-01-31 05:07:00,
2013-01-30 23:12:00,16.1,9.9,29.90,North,351,8.0,11.0,76,0.00,,,0.00,WUHU216DAVISVP2,2013-01-31 05:12:00,
2013-01-30 23:17:00,16.0,9.8,29.90,North,354,8.0,11.0,76,0.00,,,0.00,WUHU216DAVISVP2,2013-01-31 05:17:00,
2013-01-30 23:22:00,15.9,9.4,29.91,NNW,327,7.0,13.0,75,0.00,,,0.00,WUHU216DAVISVP2,2013-01-31 05:22:00,
2013-01-30 23:27:00,15.9,9.1,29.91,NW,317,8.0,14.0,74,0.00,,,0.00,WUHU216DAVISVP2,2013-01-31 05:27:00,
2013-01-30 23:32:00,15.7,8.9,29.91,NNW,338,6.0,14.0,74,0.00,,,0.00,WUHU216DAVISVP2,2013-01-31 05:32:00,
2013-01-30 23:37:00,15.6,8.8,29.91,North,1,7.0,14.0,74,0.00,,,0.00,WUHU216DAVISVP2,2013-01-31 05:37:00,
2013-01-30 23:42:00,15.5,8.7,29.92,North,353,7.0,14.0,74,0.00,,,0.00,WUHU216DAVISVP2,2013-01-31 05:42:00,
2013-01-30 23:47:00,15.4,8.9,29.92,NW,311,3.0,12.0,75,0.00,,,0.00,WUHU216DAVISVP2,2013-01-31 05:47:00,
2013-01-30 23:52:00,15.4,8.9,29.92,South,191,2.0,12.0,75,0.00,,,0.00,WUHU216DAVISVP2,2013-01-31 05:52:00,
2013-01-30 23:57:00,15.3,8.5,29.92,NNW,338,5.0,12.0,74,0.00,,,0.00,WUHU216DAVISVP2,2013-01-31 05:57:00,